{"data":{"norad_id":63634,"intl_designator":"2025-083A","name":"STARLINK-33879","alt_names":[],"object_type":"PAYLOAD","status":"ACTIVE","operator":null,"country":"US","launch_date":"2025-04-25","launch_site_code":"AFETR","launch_vehicle":null,"mission":null,"orbit_class":"UNKNOWN","rcs_meters":null,"size_class":null,"mass_kg":null,"dimensions":null,"purposes":["comms"],"wikipedia_slug":null,"has_3d_model":false,"image_url":null,"decayed_at":null,"tle_current":{"epoch":"2026-09-20T13:06:55.506528Z","epoch_age_seconds":148635,"freshness":"FRESH","line1":"1 63634U 25083A   26263.54647577  .00013610  00000+0  50291-3 0  9994","line2":"2 63634  43.0051 345.1101 0001822 283.9374  76.1275 15.27596599 79867","mean_motion":15.27596599,"eccentricity":0.0001822,"inclination_deg":43.0051,"raan_deg":345.1101,"arg_perigee_deg":283.9374,"mean_anomaly_deg":76.1275,"bstar":0.00050291,"rev_number":7986,"period_min":94.265724402807,"perigee_km":481.74929406144,"apogee_km":484.24949216309,"semimajor_km":6861.1363931123,"source":"CELESTRAK","updated_at":"2026-09-21T09:00:35.050465Z"}}}